Starlink 30880

operational
NORAD ID: 58232 Int'l Des: 2023-171 Owner: SPXS Country: US Constellation: starlink
LEOCIRCULAR

About Starlink 30880

Description loading...

Live Position

Loading 3D Globe...

Upcoming Passes

Altitude History

Altitude vs Time

uPlot chart will show altitude changes over time

Two-Line Element Set

1 58232U 23171C 25352.31929155 .00000267 00000-0 34863-4 0 9999
2 58232 43.0049 8.2853 0001141 279.8246 80.2467 15.02536845117480
Epoch: Dec 18, 2025 • Age: 9 hours

Current Status

Altitude 561.4 km
Velocity 7.59 km/s
Sub-Earth Point 35.78°N, 165.95°E
Launch Date Nov 8, 2023
Age 2.1 years
Type internet

Technical Details

Classification Payload
Mass 730.00 kg
Dry Mass 700.00 kg
Total Mass 730.00 kg
Length 0.30 m
Diameter 4.10 m
Span 29.00 m
Shape Box + pan
Manufacturer SPXS
Bus Type Starlink V2M
Phase Status In Orbit
Owner/State SPXS/US

Large Constellations

Loading constellations...